Location: Caltech
(34.1382°N, 118.1253°W)
Time: 00:02:13
(UTC-07:00)

Uosat F - Visible Passes

Search period start: 23 May 2018 00:00
Search period end: 02 June 2018 00:00
Orbit: 750 x 761 km, 98.7° (Epoch: 22 May)

Date Brightness Start Highest point End Pass type
(mag) Time Alt. Az. Time Alt. Az. Time Alt. Az.
24 May 13.7 21:03:33 10° SW 21:06:34 16° W 21:09:36 10° NW visible
25 May 12.4 20:22:07 10° S 20:26:49 41° W 20:31:33 10° NNW visible
27 May 13.2 20:42:29 10° SSW 20:46:37 26° W 20:50:48 10° NW visible
29 May 13.7 21:03:24 10° SW 21:06:29 16° W 21:09:35 10° NW visible
30 May 12.3 20:22:01 10° S 20:26:43 42° W 20:31:29 10° NNW visible
01 Jun 13.1 20:42:21 10° SSW 20:46:31 27° W 20:50:44 10° NW visible
